RYR66 EGCC-EGKK

Flight info

Callsign RYR66
Flight time N/A
Altitude 19000
Route LISTO L612 HON N859 KIDLI
Aircraft B738/M-SDE2E3FGHIRWXY/LB1

Departure

Time 2026-05-06 18:28
Airport Manchester Airport (EGCC)

Arrival

Time N/A
Airport London Gatwick Airport (EGKK)
Time Latitude Longitude Altitude Speed Heading
2026-05-06 17:42 53.36062 -2.26837 232 ft 0 kts 314°
2026-05-06 18:18 53.36054 -2.26822 232 ft 2 kts 307°
2026-05-06 18:18 53.36045 -2.26800 236 ft 2 kts 300°
2026-05-06 18:18 53.36038 -2.26775 234 ft 2 kts 284°
2026-05-06 18:18 53.36036 -2.26747 235 ft 2 kts 261°
2026-05-06 18:19 53.36041 -2.26721 236 ft 2 kts 240°
2026-05-06 18:19 53.36049 -2.26701 235 ft 1 kts 232°
2026-05-06 18:19 53.36051 -2.26696 235 ft 0 kts 232°
2026-05-06 18:21 53.36042 -2.26716 236 ft 6 kts 232°
2026-05-06 18:21 53.35988 -2.26740 232 ft 10 kts 164°
2026-05-06 18:21 53.35941 -2.26748 235 ft 3 kts 212°
2026-05-06 18:21 53.35913 -2.26801 233 ft 11 kts 234°
2026-05-06 18:22 53.35860 -2.26921 232 ft 13 kts 230°
2026-05-06 18:22 53.35812 -2.27050 232 ft 13 kts 239°
2026-05-06 18:22 53.35758 -2.27167 233 ft 13 kts 231°
2026-05-06 18:22 53.35704 -2.27278 234 ft 12 kts 231°
2026-05-06 18:23 53.35651 -2.27388 232 ft 12 kts 231°
2026-05-06 18:23 53.35600 -2.27493 233 ft 12 kts 231°
2026-05-06 18:23 53.35550 -2.27596 232 ft 11 kts 231°
2026-05-06 18:23 53.35502 -2.27697 232 ft 11 kts 231°
2026-05-06 18:24 53.35460 -2.27799 232 ft 11 kts 252°
2026-05-06 18:24 53.35453 -2.27920 234 ft 10 kts 247°
2026-05-06 18:24 53.35404 -2.28007 232 ft 10 kts 224°
2026-05-06 18:24 53.35353 -2.28086 232 ft 10 kts 224°
2026-05-06 18:25 53.35304 -2.28165 232 ft 10 kts 224°
2026-05-06 18:25 53.35253 -2.28256 232 ft 13 kts 229°
2026-05-06 18:25 53.35184 -2.28393 232 ft 17 kts 231°
2026-05-06 18:25 53.35106 -2.28560 232 ft 20 kts 231°
2026-05-06 18:26 53.35014 -2.28739 232 ft 21 kts 225°
2026-05-06 18:26 53.34917 -2.28910 232 ft 20 kts 226°
2026-05-06 18:26 53.34817 -2.29062 232 ft 19 kts 204°
2026-05-06 18:26 53.34693 -2.29025 232 ft 18 kts 146°
2026-05-06 18:27 53.34714 -2.28856 232 ft 18 kts 47°
2026-05-06 18:27 53.34954 -2.28368 235 ft 95 kts 51°
2026-05-06 18:27 53.35524 -2.27191 247 ft 162 kts 50°
2026-05-06 18:27 53.36333 -2.25545 601 ft 198 kts 50°
2026-05-06 18:28 53.37261 -2.23667 1182 ft 215 kts 49°
2026-05-06 18:28 53.38111 -2.21700 2118 ft 207 kts 58°
2026-05-06 18:28 53.38677 -2.19544 3112 ft 201 kts 76°
2026-05-06 18:28 53.38602 -2.17325 4190 ft 188 kts 118°
2026-05-06 18:29 53.37654 -2.15962 5130 ft 183 kts 166°
2026-05-06 18:29 53.36447 -2.15319 5950 ft 185 kts 153°
2026-05-06 18:29 53.35654 -2.14714 6493 ft 187 kts 168°
2026-05-06 18:29 53.33981 -2.15132 7512 ft 188 kts 196°
2026-05-06 18:30 53.32581 -2.15749 7534 ft 227 kts 195°
2026-05-06 18:30 53.30953 -2.16457 7560 ft 253 kts 195°
2026-05-06 18:30 53.29236 -2.17209 7619 ft 259 kts 195°
2026-05-06 18:30 53.27475 -2.17916 8145 ft 261 kts 190°
2026-05-06 18:31 53.25669 -2.18239 8843 ft 261 kts 185°
2026-05-06 18:31 53.23819 -2.18479 9268 ft 269 kts 185°
2026-05-06 18:31 53.21970 -2.18736 9549 ft 270 kts 186°
2026-05-06 18:31 53.20079 -2.19016 10348 ft 269 kts 186°
2026-05-06 18:32 53.18235 -2.19294 11215 ft 270 kts 186°
2026-05-06 18:32 53.16339 -2.19582 12078 ft 272 kts 185°
2026-05-06 18:32 53.14412 -2.19466 12455 ft 294 kts 172°
2026-05-06 18:32 53.12311 -2.18599 12664 ft 321 kts 160°
2026-05-06 18:33 53.10181 -2.17189 12868 ft 345 kts 158°
2026-05-06 18:33 53.07892 -2.15591 13050 ft 369 kts 158°
2026-05-06 18:33 53.05443 -2.13862 13393 ft 385 kts 158°
2026-05-06 18:33 53.02953 -2.12108 14018 ft 391 kts 158°
2026-05-06 18:34 53.00439 -2.10350 14750 ft 394 kts 158°
2026-05-06 18:34 52.97903 -2.08587 15456 ft 397 kts 158°
2026-05-06 18:34 52.95339 -2.06814 16127 ft 401 kts 158°
2026-05-06 18:34 52.92749 -2.05031 16761 ft 405 kts 158°
2026-05-06 18:35 52.90134 -2.03235 17380 ft 409 kts 158°
2026-05-06 18:35 52.87498 -2.01428 17988 ft 412 kts 158°
2026-05-06 18:35 52.84841 -1.99610 18596 ft 415 kts 158°
2026-05-06 18:35 52.82159 -1.97777 19173 ft 419 kts 158°
2026-05-06 18:36 52.79451 -1.95929 19724 ft 423 kts 158°
2026-05-06 18:36 52.76724 -1.94070 20267 ft 426 kts 158°
2026-05-06 18:36 52.73971 -1.92196 20783 ft 429 kts 158°
2026-05-06 18:36 52.71205 -1.90316 21294 ft 433 kts 158°
2026-05-06 18:37 52.68411 -1.88419 21768 ft 436 kts 158°
2026-05-06 18:37 52.66548 -1.87156 22084 ft 438 kts 158°
2026-05-06 18:37 52.62760 -1.84590 22710 ft 442 kts 158°
2026-05-06 18:37 52.59945 -1.82687 23141 ft 445 kts 158°
2026-05-06 18:38 52.57037 -1.80724 23561 ft 448 kts 158°
2026-05-06 18:38 52.54143 -1.78773 23981 ft 451 kts 158°
2026-05-06 18:38 52.51234 -1.76815 24398 ft 453 kts 158°
2026-05-06 18:38 52.48307 -1.74847 24796 ft 456 kts 158°
2026-05-06 18:39 52.45400 -1.72895 25168 ft 458 kts 158°
2026-05-06 18:39 52.42438 -1.70908 25528 ft 461 kts 158°
2026-05-06 18:39 52.39462 -1.68915 25879 ft 464 kts 158°
2026-05-06 18:40 52.33377 -1.65032 26499 ft 469 kts 161°
2026-05-06 18:40 52.30307 -1.63384 26841 ft 471 kts 163°
2026-05-06 18:40 52.27178 -1.61791 26993 ft 473 kts 163°
2026-05-06 18:40 52.24028 -1.60211 26996 ft 473 kts 163°
2026-05-06 18:41 52.20906 -1.58635 26985 ft 463 kts 163°
2026-05-06 18:41 52.17904 -1.57103 26981 ft 442 kts 163°
2026-05-06 18:41 52.15032 -1.55623 26981 ft 424 kts 163°
2026-05-06 18:41 52.12274 -1.54195 26980 ft 408 kts 163°
2026-05-06 18:42 52.09621 -1.52819 26984 ft 392 kts 163°
2026-05-06 18:42 52.07074 -1.51500 26979 ft 378 kts 163°
2026-05-06 18:42 52.04613 -1.50226 26983 ft 365 kts 163°
2026-05-06 18:42 52.02184 -1.48972 27005 ft 371 kts 163°
2026-05-06 18:43 51.99679 -1.47681 27020 ft 385 kts 163°
2026-05-06 18:43 51.97081 -1.46344 27021 ft 398 kts 163°
2026-05-06 18:43 51.94399 -1.44965 27022 ft 410 kts 163°
2026-05-06 18:43 51.91643 -1.43548 27018 ft 422 kts 163°
2026-05-06 18:44 51.88813 -1.42095 27018 ft 430 kts 163°
2026-05-06 18:44 51.85954 -1.40629 26767 ft 433 kts 163°
2026-05-06 18:44 51.83066 -1.39149 26135 ft 435 kts 163°
2026-05-06 18:44 51.80186 -1.37677 25544 ft 432 kts 163°
2026-05-06 18:45 51.77346 -1.36182 24937 ft 428 kts 159°
2026-05-06 18:45 51.74717 -1.33919 24333 ft 425 kts 148°
2026-05-06 18:45 51.72252 -1.31324 23741 ft 422 kts 147°
2026-05-06 18:45 51.70640 -1.29592 23345 ft 420 kts 147°
2026-05-06 18:46 51.67401 -1.26107 22541 ft 416 kts 147°
2026-05-06 18:46 51.64999 -1.23551 21947 ft 414 kts 147°
2026-05-06 18:46 51.62593 -1.21017 21359 ft 412 kts 147°
2026-05-06 18:46 51.60197 -1.18514 20750 ft 409 kts 147°
2026-05-06 18:47 51.57811 -1.16035 20151 ft 407 kts 147°
2026-05-06 18:47 51.55444 -1.13584 19561 ft 404 kts 148°
2026-05-06 18:47 51.53086 -1.11148 18952 ft 401 kts 148°
2026-05-06 18:47 51.50739 -1.08726 18354 ft 399 kts 148°
2026-05-06 18:48 51.48410 -1.06326 17754 ft 396 kts 148°
2026-05-06 18:48 51.46098 -1.03946 17164 ft 394 kts 148°
2026-05-06 18:48 51.43797 -1.01581 16522 ft 392 kts 148°
2026-05-06 18:48 51.41505 -0.99227 15848 ft 391 kts 148°
2026-05-06 18:49 51.39213 -0.96875 15329 ft 387 kts 148°
2026-05-06 18:49 51.36983 -0.94589 15133 ft 373 kts 148°
2026-05-06 18:49 51.34808 -0.92363 15035 ft 371 kts 148°
2026-05-06 18:49 51.32640 -0.90147 14746 ft 371 kts 148°
2026-05-06 18:50 51.31197 -0.88673 14394 ft 371 kts 148°
2026-05-06 18:50 51.29023 -0.86456 13877 ft 371 kts 148°
2026-05-06 18:50 51.26855 -0.84246 13351 ft 368 kts 148°
2026-05-06 18:50 51.24004 -0.81343 12654 ft 364 kts 148°
2026-05-06 18:51 51.21875 -0.79178 12132 ft 362 kts 148°
2026-05-06 18:51 51.20446 -0.77727 11780 ft 360 kts 148°
2026-05-06 18:51 51.18343 -0.75593 11268 ft 357 kts 148°
2026-05-06 18:51 51.15618 -0.72830 11037 ft 341 kts 148°
2026-05-06 18:52 51.14285 -0.71480 11000 ft 331 kts 148°
2026-05-06 18:52 51.12414 -0.69586 10984 ft 316 kts 148°
2026-05-06 18:52 51.10606 -0.67757 10978 ft 301 kts 148°
2026-05-06 18:52 51.08862 -0.65997 10986 ft 293 kts 148°
2026-05-06 18:53 51.07149 -0.64270 11002 ft 292 kts 148°
2026-05-06 18:53 51.05495 -0.62303 10990 ft 296 kts 131°
2026-05-06 18:53 51.04402 -0.59584 11013 ft 298 kts 117°
2026-05-06 18:53 51.03492 -0.56603 11005 ft 299 kts 116°
2026-05-06 18:54 51.02598 -0.53655 10911 ft 295 kts 116°
2026-05-06 18:54 51.01705 -0.50753 10638 ft 292 kts 116°
2026-05-06 18:54 51.00804 -0.47855 10268 ft 293 kts 117°
2026-05-06 18:54 50.99897 -0.44963 9930 ft 292 kts 117°
2026-05-06 18:55 50.98990 -0.42081 9617 ft 291 kts 117°
2026-05-06 18:55 50.98088 -0.39221 9410 ft 286 kts 117°
2026-05-06 18:55 50.96309 -0.33582 9038 ft 275 kts 117°
2026-05-06 18:56 50.95458 -0.30890 8718 ft 272 kts 117°
2026-05-06 18:56 50.94613 -0.28220 8305 ft 269 kts 117°
2026-05-06 18:56 50.93782 -0.25596 8032 ft 261 kts 117°
2026-05-06 18:56 50.92997 -0.23121 8006 ft 252 kts 117°
2026-05-06 18:57 50.92207 -0.20631 8012 ft 253 kts 117°
2026-05-06 18:57 50.91450 -0.18136 7997 ft 251 kts 109°
2026-05-06 18:57 50.91275 -0.15420 8006 ft 250 kts 80°
2026-05-06 18:57 50.91958 -0.12920 8007 ft 250 kts 49°
2026-05-06 18:58 50.93335 -0.11308 8011 ft 248 kts 19°
2026-05-06 18:58 50.95022 -0.11017 8014 ft 246 kts 348°
2026-05-06 18:58 50.96595 -0.12075 7706 ft 255 kts 323°
2026-05-06 18:58 50.97780 -0.14336 6823 ft 278 kts 295°
2026-05-06 18:59 50.98464 -0.17293 5997 ft 294 kts 287°
2026-05-06 18:59 50.99059 -0.20406 5513 ft 288 kts 286°
2026-05-06 18:59 50.99608 -0.23361 5376 ft 270 kts 286°
2026-05-06 18:59 51.00119 -0.26137 5252 ft 254 kts 286°
2026-05-06 19:00 51.00603 -0.28776 4935 ft 248 kts 286°
2026-05-06 19:00 51.01085 -0.31409 4466 ft 249 kts 286°
2026-05-06 19:00 51.01568 -0.34056 3967 ft 250 kts 286°
2026-05-06 19:00 51.02054 -0.36716 3474 ft 251 kts 286°
2026-05-06 19:01 51.02538 -0.39371 3107 ft 247 kts 286°
2026-05-06 19:01 51.03001 -0.41912 3013 ft 231 kts 287°
2026-05-06 19:01 51.03766 -0.44061 2996 ft 220 kts 317°
2026-05-06 19:01 51.05051 -0.45204 3031 ft 213 kts 339°
2026-05-06 19:02 51.06440 -0.45971 3015 ft 213 kts 340°
2026-05-06 19:02 51.07820 -0.46700 3015 ft 207 kts 341°
2026-05-06 19:02 51.09184 -0.47412 3026 ft 207 kts 341°
2026-05-06 19:03 51.11634 -0.46436 2998 ft 210 kts 54°
2026-05-06 19:03 51.11985 -0.44277 2995 ft 201 kts 96°
2026-05-06 19:03 51.11890 -0.42088 2830 ft 197 kts 86°
2026-05-06 19:03 51.12029 -0.39936 2590 ft 194 kts 82°